owner,sensor,date,latitude,longitude,air_pressure(mBar),qcFlag 
TABS,ioos:station:wmo:42046:1,2009-11-01T00:00:00Z,27.8903,-94.0367,1019.86,11111222 
TABS,ioos:station:wmo:42046:1,2009-11-01T00:30:00Z,27.8903,-94.0367,1020.1,11111222 
TABS,ioos:station:wmo:42046:1,2009-11-01T01:00:00Z,27.8903,-94.0367,1020.5,11111222 
TABS,ioos:station:wmo:42046:1,2009-11-01T01:30:00Z,27.8903,-94.0367,1020.61,11111222 
TABS,ioos:station:wmo:42046:1,2009-11-01T02:00:00Z,27.8903,-94.0367,1020.93,11111222 
TABS,ioos:station:wmo:42046:1,2009-11-01T02:30:00Z,27.8903,-94.0367,1020.89,11111222 
TABS,ioos:station:wmo:42046:1,2009-11-01T03:00:00Z,27.8903,-94.0367,1021.12,11111222 
TABS,ioos:station:wmo:42046:1,2009-11-01T03:30:00Z,27.8903,-94.0367,1021.13,11111222 
TABS,ioos:station:wmo:42046:1,2009-11-01T04:00:00Z,27.8903,-94.0367,1021.16,11111222 
TABS,ioos:station:wmo:42046:1,2009-11-01T04:30:00Z,27.8903,-94.0367,1021.09,11111222 
TABS,ioos:station:wmo:42046:1,2009-11-01T05:00:00Z,27.8903,-94.0367,1020.97,11111222 
TABS,ioos:station:wmo:42046:1,2009-11-01T05:30:00Z,27.8903,-94.0367,1020.65,11111222 
TABS,ioos:station:wmo:42046:1,2009-11-01T06:00:00Z,27.8903,-94.0367,1020.48,11111222 
TABS,ioos:station:wmo:42046:1,2009-11-01T06:30:00Z,27.8903,-94.0367,1020.61,11111222 
TABS,ioos:station:wmo:42046:1,2009-11-01T07:00:00Z,27.8903,-94.0367,1020.5,11111222 
TABS,ioos:station:wmo:42046:1,2009-11-01T07:30:00Z,27.8903,-94.0367,1020.43,11111222 
TABS,ioos:station:wmo:42046:1,2009-11-01T08:00:00Z,27.8903,-94.0367,1020.18,11111222 
TABS,ioos:station:wmo:42046:1,2009-11-01T08:30:00Z,27.8903,-94.0367,1020.23,11111222 
TABS,ioos:station:wmo:42046:1,2009-11-01T09:00:00Z,27.8903,-94.0367,1020.28,11111222 
TABS,ioos:station:wmo:42046:1,2009-11-01T09:30:00Z,27.8903,-94.0367,1020.27,11111222 
TABS,ioos:station:wmo:42046:1,2009-11-01T10:00:00Z,27.8903,-94.0367,1020.28,11111222 
TABS,ioos:station:wmo:42046:1,2009-11-01T10:30:00Z,27.8903,-94.0367,1020.39,11111222 
TABS,ioos:station:wmo:42046:1,2009-11-01T11:00:00Z,27.8903,-94.0367,1020.54,11111222 
TABS,ioos:station:wmo:42046:1,2009-11-01T11:30:00Z,27.8903,-94.0367,1020.62,11111222 
TABS,ioos:station:wmo:42046:1,2009-11-01T12:00:00Z,27.8903,-94.0367,1020.89,11111222 
TABS,ioos:station:wmo:42046:1,2009-11-01T12:30:00Z,27.8903,-94.0367,1021.08,11111222 
TABS,ioos:station:wmo:42046:1,2009-11-01T13:00:00Z,27.8903,-94.0367,1021.2,11111222 
TABS,ioos:station:wmo:42046:1,2009-11-01T13:30:00Z,27.8903,-94.0367,1021.39,11111222 
TABS,ioos:station:wmo:42046:1,2009-11-01T14:00:00Z,27.8903,-94.0367,1021.66,11111222 
TABS,ioos:station:wmo:42046:1,2009-11-01T14:30:00Z,27.8903,-94.0367,1021.96,11111222 
TABS,ioos:station:wmo:42046:1,2009-11-01T15:00:00Z,27.8903,-94.0367,1022.04,11111222 
TABS,ioos:station:wmo:42046:1,2009-11-01T15:30:00Z,27.8903,-94.0367,1022.23,11111222 
TABS,ioos:station:wmo:42046:1,2009-11-01T16:00:00Z,27.8903,-94.0367,1022.24,11111222 
TABS,ioos:station:wmo:42046:1,2009-11-01T16:30:00Z,27.8903,-94.0367,1022.27,11111222 
TABS,ioos:station:wmo:42046:1,2009-11-01T17:00:00Z,27.8903,-94.0367,1022.04,11111222 
TABS,ioos:station:wmo:42046:1,2009-11-01T17:30:00Z,27.8903,-94.0367,1021.63,11111222 
TABS,ioos:station:wmo:42046:1,2009-11-01T18:00:00Z,27.8903,-94.0367,1021.43,11111222 
TABS,ioos:station:wmo:42046:1,2009-11-01T18:30:00Z,27.8903,-94.0367,1020.79,11111222 
TABS,ioos:station:wmo:42046:1,2009-11-01T19:00:00Z,27.8903,-94.0367,1020.3,11111222 
TABS,ioos:station:wmo:42046:1,2009-11-01T19:30:00Z,27.8903,-94.0367,1019.94,11111222 
TABS,ioos:station:wmo:42046:1,2009-11-01T20:00:00Z,27.8903,-94.0367,1019.83,11111222 
TABS,ioos:station:wmo:42046:1,2009-11-01T20:30:00Z,27.8903,-94.0367,1019.71,11111222 
TABS,ioos:station:wmo:42046:1,2009-11-01T21:00:00Z,27.8903,-94.0367,1019.73,11111222 
TABS,ioos:station:wmo:42046:1,2009-11-01T21:30:00Z,27.8903,-94.0367,1019.65,11111222 
TABS,ioos:station:wmo:42046:1,2009-11-01T22:00:00Z,27.8903,-94.0367,1019.66,11111222 
TABS,ioos:station:wmo:42046:1,2009-11-01T22:30:00Z,27.8903,-94.0367,1019.63,11111222 
TABS,ioos:station:wmo:42046:1,2009-11-01T23:00:00Z,27.8903,-94.0367,1019.83,11111222 
TABS,ioos:station:wmo:42046:1,2009-11-01T23:30:00Z,27.8903,-94.0367,1020.07,11111222 
TABS,ioos:station:wmo:42046:1,2009-11-02T00:00:00Z,27.8903,-94.0367,1020.13,11111222 
TABS,ioos:station:wmo:42046:1,2009-11-02T00:30:00Z,27.8903,-94.0367,1020.35,11111222 
TABS,ioos:station:wmo:42046:1,2009-11-02T01:00:00Z,27.8903,-94.0367,1020.7,11111222 
TABS,ioos:station:wmo:42046:1,2009-11-02T01:30:00Z,27.8903,-94.0367,1020.8,11111222 
TABS,ioos:station:wmo:42046:1,2009-11-02T02:00:00Z,27.8903,-94.0367,1020.89,11111222 
TABS,ioos:station:wmo:42046:1,2009-11-02T02:30:00Z,27.8903,-94.0367,1021.0,11111222 
TABS,ioos:station:wmo:42046:1,2009-11-02T03:00:00Z,27.8903,-94.0367,1020.96,11111222 
TABS,ioos:station:wmo:42046:1,2009-11-02T03:30:00Z,27.8903,-94.0367,1020.87,11111222 
TABS,ioos:station:wmo:42046:1,2009-11-02T04:00:00Z,27.8903,-94.0367,1020.89,11111222 
TABS,ioos:station:wmo:42046:1,2009-11-02T04:30:00Z,27.8903,-94.0367,1020.85,11111222 
TABS,ioos:station:wmo:42046:1,2009-11-02T05:00:00Z,27.8903,-94.0367,1020.65,11111222 
TABS,ioos:station:wmo:42046:1,2009-11-02T05:30:00Z,27.8903,-94.0367,1020.31,11111222 
TABS,ioos:station:wmo:42046:1,2009-11-02T06:00:00Z,27.8903,-94.0367,1020.31,11111222 
TABS,ioos:station:wmo:42046:1,2009-11-02T06:30:00Z,27.8903,-94.0367,1020.11,11111222 
TABS,ioos:station:wmo:42046:1,2009-11-02T07:00:00Z,27.8903,-94.0367,1020.12,11111222 
TABS,ioos:station:wmo:42046:1,2009-11-02T07:30:00Z,27.8903,-94.0367,1020.06,11111222 
TABS,ioos:station:wmo:42046:1,2009-11-02T08:00:00Z,27.8903,-94.0367,1019.79,11111222 
TABS,ioos:station:wmo:42046:1,2009-11-02T08:30:00Z,27.8903,-94.0367,1019.93,11111222 
TABS,ioos:station:wmo:42046:1,2009-11-02T09:00:00Z,27.8903,-94.0367,1019.74,11111222 
TABS,ioos:station:wmo:42046:1,2009-11-02T09:30:00Z,27.8903,-94.0367,1019.46,11111222 
TABS,ioos:station:wmo:42046:1,2009-11-02T10:00:00Z,27.8903,-94.0367,1019.64,11111222 
TABS,ioos:station:wmo:42046:1,2009-11-02T10:30:00Z,27.8903,-94.0367,1020.01,11111222 
TABS,ioos:station:wmo:42046:1,2009-11-02T11:00:00Z,27.8903,-94.0367,1020.13,11111222 
TABS,ioos:station:wmo:42046:1,2009-11-02T11:30:00Z,27.8903,-94.0367,1020.12,11111222 
TABS,ioos:station:wmo:42046:1,2009-11-02T12:00:00Z,27.8903,-94.0367,1020.6,11111222 
TABS,ioos:station:wmo:42046:1,2009-11-02T12:30:00Z,27.8903,-94.0367,1020.56,11111222 
TABS,ioos:station:wmo:42046:1,2009-11-02T13:00:00Z,27.8903,-94.0367,1020.8,11111222 
TABS,ioos:station:wmo:42046:1,2009-11-02T13:30:00Z,27.8903,-94.0367,1021.16,11111222 
TABS,ioos:station:wmo:42046:1,2009-11-02T14:00:00Z,27.8903,-94.0367,1021.45,11111222 
TABS,ioos:station:wmo:42046:1,2009-11-02T14:30:00Z,27.8903,-94.0367,1021.78,11111222 
TABS,ioos:station:wmo:42046:1,2009-11-02T15:00:00Z,27.8903,-94.0367,1021.93,11111222 
TABS,ioos:station:wmo:42046:1,2009-11-02T15:30:00Z,27.8903,-94.0367,1022.09,11111222 
TABS,ioos:station:wmo:42046:1,2009-11-02T16:00:00Z,27.8903,-94.0367,1022.19,11111222 
TABS,ioos:station:wmo:42046:1,2009-11-02T16:30:00Z,27.8903,-94.0367,1022.05,11111222 
TABS,ioos:station:wmo:42046:1,2009-11-02T17:00:00Z,27.8903,-94.0367,1021.98,11111222 
TABS,ioos:station:wmo:42046:1,2009-11-02T17:30:00Z,27.8903,-94.0367,1021.87,11111222 
TABS,ioos:station:wmo:42046:1,2009-11-02T18:00:00Z,27.8903,-94.0367,1021.37,11111222 
TABS,ioos:station:wmo:42046:1,2009-11-02T18:30:00Z,27.8903,-94.0367,1020.98,11111222 
TABS,ioos:station:wmo:42046:1,2009-11-02T19:00:00Z,27.8903,-94.0367,1020.66,11111222 
TABS,ioos:station:wmo:42046:1,2009-11-02T19:30:00Z,27.8903,-94.0367,1020.36,11111222 
TABS,ioos:station:wmo:42046:1,2009-11-02T20:00:00Z,27.8903,-94.0367,1020.45,11111222 
TABS,ioos:station:wmo:42046:1,2009-11-02T20:30:00Z,27.8903,-94.0367,1020.25,11111222 
TABS,ioos:station:wmo:42046:1,2009-11-02T21:00:00Z,27.8903,-94.0367,1020.38,11111222 
TABS,ioos:station:wmo:42046:1,2009-11-02T21:30:00Z,27.8903,-94.0367,1020.38,11111222 
TABS,ioos:station:wmo:42046:1,2009-11-02T22:00:00Z,27.8903,-94.0367,1020.15,11111222 
TABS,ioos:station:wmo:42046:1,2009-11-02T22:30:00Z,27.8903,-94.0367,1020.35,11111222 
TABS,ioos:station:wmo:42046:1,2009-11-02T23:00:00Z,27.8903,-94.0367,1020.5,11111222 
TABS,ioos:station:wmo:42046:1,2009-11-02T23:30:00Z,27.8903,-94.0367,1020.69,11111222 
TABS,ioos:station:wmo:42046:1,2009-11-03T00:00:00Z,27.8903,-94.0367,1020.93,11111222 
TABS,ioos:station:wmo:42046:1,2009-11-03T00:30:00Z,27.8903,-94.0367,1021.01,11111222 
TABS,ioos:station:wmo:42046:1,2009-11-03T01:00:00Z,27.8903,-94.0367,1021.08,11111222 
TABS,ioos:station:wmo:42046:1,2009-11-03T01:30:00Z,27.8903,-94.0367,1021.25,11111222 
TABS,ioos:station:wmo:42046:1,2009-11-03T02:00:00Z,27.8903,-94.0367,1021.35,11111222 
TABS,ioos:station:wmo:42046:1,2009-11-03T02:30:00Z,27.8903,-94.0367,1021.65,11111222 
TABS,ioos:station:wmo:42046:1,2009-11-03T03:00:00Z,27.8903,-94.0367,1021.76,11111222 
TABS,ioos:station:wmo:42046:1,2009-11-03T03:30:00Z,27.8903,-94.0367,1021.86,11111222 
TABS,ioos:station:wmo:42046:1,2009-11-03T04:00:00Z,27.8903,-94.0367,1021.96,11111222 
TABS,ioos:station:wmo:42046:1,2009-11-03T04:30:00Z,27.8903,-94.0367,1021.95,11111222 
TABS,ioos:station:wmo:42046:1,2009-11-03T05:00:00Z,27.8903,-94.0367,1022.01,11111222 
TABS,ioos:station:wmo:42046:1,2009-11-03T05:30:00Z,27.8903,-94.0367,1021.92,11111222 
TABS,ioos:station:wmo:42046:1,2009-11-03T06:00:00Z,27.8903,-94.0367,1021.98,11111222 
TABS,ioos:station:wmo:42046:1,2009-11-03T06:30:00Z,27.8903,-94.0367,1021.97,11111222 
TABS,ioos:station:wmo:42046:1,2009-11-03T07:00:00Z,27.8903,-94.0367,1021.72,11111222 
TABS,ioos:station:wmo:42046:1,2009-11-03T07:30:00Z,27.8903,-94.0367,1021.49,11111222 
TABS,ioos:station:wmo:42046:1,2009-11-03T08:00:00Z,27.8903,-94.0367,1021.38,11111222 
TABS,ioos:station:wmo:42046:1,2009-11-03T08:30:00Z,27.8903,-94.0367,1021.01,11111222 
TABS,ioos:station:wmo:42046:1,2009-11-03T09:00:00Z,27.8903,-94.0367,1021.25,11111222 
TABS,ioos:station:wmo:42046:1,2009-11-03T09:30:00Z,27.8903,-94.0367,1021.37,11111222 
TABS,ioos:station:wmo:42046:1,2009-11-03T10:00:00Z,27.8903,-94.0367,1021.55,11111222 
TABS,ioos:station:wmo:42046:1,2009-11-03T10:30:00Z,27.8903,-94.0367,1021.58,11111222 
TABS,ioos:station:wmo:42046:1,2009-11-03T11:00:00Z,27.8903,-94.0367,1021.72,11111222 
TABS,ioos:station:wmo:42046:1,2009-11-03T11:30:00Z,27.8903,-94.0367,1021.88,11111222 
TABS,ioos:station:wmo:42046:1,2009-11-03T12:00:00Z,27.8903,-94.0367,1022.05,11111222 
TABS,ioos:station:wmo:42046:1,2009-11-03T12:30:00Z,27.8903,-94.0367,1022.37,11111222 
TABS,ioos:station:wmo:42046:1,2009-11-03T13:00:00Z,27.8903,-94.0367,1022.69,11111222 
TABS,ioos:station:wmo:42046:1,2009-11-03T13:30:00Z,27.8903,-94.0367,1023.05,11111222 
TABS,ioos:station:wmo:42046:1,2009-11-03T14:00:00Z,27.8903,-94.0367,1023.48,11111222 
TABS,ioos:station:wmo:42046:1,2009-11-03T14:30:00Z,27.8903,-94.0367,1023.72,11111222 
TABS,ioos:station:wmo:42046:1,2009-11-03T15:00:00Z,27.8903,-94.0367,1023.82,11111222 
TABS,ioos:station:wmo:42046:1,2009-11-03T15:30:00Z,27.8903,-94.0367,1024.09,11111222 
TABS,ioos:station:wmo:42046:1,2009-11-03T16:00:00Z,27.8903,-94.0367,1024.14,11111222 
TABS,ioos:station:wmo:42046:1,2009-11-03T16:30:00Z,27.8903,-94.0367,1023.66,11111222 
TABS,ioos:station:wmo:42046:1,2009-11-03T17:00:00Z,27.8903,-94.0367,1023.51,11111222 
TABS,ioos:station:wmo:42046:1,2009-11-03T17:30:00Z,27.8903,-94.0367,1023.14,11111222 
TABS,ioos:station:wmo:42046:1,2009-11-03T18:00:00Z,27.8903,-94.0367,1022.68,11111222 
TABS,ioos:station:wmo:42046:1,2009-11-03T18:30:00Z,27.8903,-94.0367,1022.17,11111222 
TABS,ioos:station:wmo:42046:1,2009-11-03T19:00:00Z,27.8903,-94.0367,1021.87,11111222 
TABS,ioos:station:wmo:42046:1,2009-11-03T19:30:00Z,27.8903,-94.0367,1021.68,11111222 
TABS,ioos:station:wmo:42046:1,2009-11-03T20:00:00Z,27.8903,-94.0367,1021.57,11111222 
TABS,ioos:station:wmo:42046:1,2009-11-03T20:30:00Z,27.8903,-94.0367,1021.54,11111222 
TABS,ioos:station:wmo:42046:1,2009-11-03T21:00:00Z,27.8903,-94.0367,1021.28,11111222 
TABS,ioos:station:wmo:42046:1,2009-11-03T21:30:00Z,27.8903,-94.0367,1021.51,11111222 
TABS,ioos:station:wmo:42046:1,2009-11-03T22:00:00Z,27.8903,-94.0367,1021.33,11111222 
TABS,ioos:station:wmo:42046:1,2009-11-03T22:30:00Z,27.8903,-94.0367,1021.47,11111222 
TABS,ioos:station:wmo:42046:1,2009-11-03T23:00:00Z,27.8903,-94.0367,1021.79,11111222 
TABS,ioos:station:wmo:42046:1,2009-11-03T23:30:00Z,27.8903,-94.0367,1022.09,11111222 
TABS,ioos:station:wmo:42046:1,2009-11-04T00:00:00Z,27.8903,-94.0367,1022.32,11111222 
TABS,ioos:station:wmo:42046:1,2009-11-04T00:30:00Z,27.8903,-94.0367,1022.6,11111222 
TABS,ioos:station:wmo:42046:1,2009-11-04T01:00:00Z,27.8903,-94.0367,1022.84,11111222 
TABS,ioos:station:wmo:42046:1,2009-11-04T01:30:00Z,27.8903,-94.0367,1022.98,11111222 
TABS,ioos:station:wmo:42046:1,2009-11-04T02:00:00Z,27.8903,-94.0367,1023.05,11111222 
TABS,ioos:station:wmo:42046:1,2009-11-04T02:30:00Z,27.8903,-94.0367,1023.66,11111222 
TABS,ioos:station:wmo:42046:1,2009-11-04T03:00:00Z,27.8903,-94.0367,1023.63,11111222 
TABS,ioos:station:wmo:42046:1,2009-11-04T03:30:00Z,27.8903,-94.0367,1023.55,11111222 
TABS,ioos:station:wmo:42046:1,2009-11-04T04:00:00Z,27.8903,-94.0367,1023.54,11111222 
TABS,ioos:station:wmo:42046:1,2009-11-04T04:30:00Z,27.8903,-94.0367,1023.52,11111222 
TABS,ioos:station:wmo:42046:1,2009-11-04T05:00:00Z,27.8903,-94.0367,1023.36,11111222 
TABS,ioos:station:wmo:42046:1,2009-11-04T05:30:00Z,27.8903,-94.0367,1023.45,11111222 
TABS,ioos:station:wmo:42046:1,2009-11-04T06:00:00Z,27.8903,-94.0367,1023.3,11111222 
TABS,ioos:station:wmo:42046:1,2009-11-04T06:30:00Z,27.8903,-94.0367,1023.02,11111222 
TABS,ioos:station:wmo:42046:1,2009-11-04T07:00:00Z,27.8903,-94.0367,1022.94,11111222 
TABS,ioos:station:wmo:42046:1,2009-11-04T07:30:00Z,27.8903,-94.0367,1022.89,11111222 
TABS,ioos:station:wmo:42046:1,2009-11-04T08:00:00Z,27.8903,-94.0367,1022.77,11111222 
TABS,ioos:station:wmo:42046:1,2009-11-04T08:30:00Z,27.8903,-94.0367,1022.82,11111222 
TABS,ioos:station:wmo:42046:1,2009-11-04T09:00:00Z,27.8903,-94.0367,1022.86,11111222 
TABS,ioos:station:wmo:42046:1,2009-11-04T09:30:00Z,27.8903,-94.0367,1023.26,11111222 
TABS,ioos:station:wmo:42046:1,2009-11-04T10:00:00Z,27.8903,-94.0367,1023.08,11111222 
TABS,ioos:station:wmo:42046:1,2009-11-04T10:30:00Z,27.8903,-94.0367,1023.28,11111222 
TABS,ioos:station:wmo:42046:1,2009-11-04T11:00:00Z,27.8903,-94.0367,1023.63,11111222 
TABS,ioos:station:wmo:42046:1,2009-11-04T11:30:00Z,27.8903,-94.0367,1023.94,11111222 
TABS,ioos:station:wmo:42046:1,2009-11-04T12:00:00Z,27.8903,-94.0367,1024.2,11111222 
TABS,ioos:station:wmo:42046:1,2009-11-04T12:30:00Z,27.8903,-94.0367,1024.18,11111222 
TABS,ioos:station:wmo:42046:1,2009-11-04T13:00:00Z,27.8903,-94.0367,1024.52,11111222 
TABS,ioos:station:wmo:42046:1,2009-11-04T13:30:00Z,27.8903,-94.0367,1024.61,11111222 
TABS,ioos:station:wmo:42046:1,2009-11-04T14:00:00Z,27.8903,-94.0367,1024.89,11111222 
TABS,ioos:station:wmo:42046:1,2009-11-04T14:30:00Z,27.8903,-94.0367,1025.19,11111222 
TABS,ioos:station:wmo:42046:1,2009-11-04T15:00:00Z,27.8903,-94.0367,1025.36,11111222 
TABS,ioos:station:wmo:42046:1,2009-11-04T15:30:00Z,27.8903,-94.0367,1025.6,11111222 
TABS,ioos:station:wmo:42046:1,2009-11-04T16:00:00Z,27.8903,-94.0367,1025.62,11111222 
TABS,ioos:station:wmo:42046:1,2009-11-04T16:30:00Z,27.8903,-94.0367,1025.52,11111222 
TABS,ioos:station:wmo:42046:1,2009-11-04T17:00:00Z,27.8903,-94.0367,1025.53,11111222 
TABS,ioos:station:wmo:42046:1,2009-11-04T17:30:00Z,27.8903,-94.0367,1025.01,11111222 
TABS,ioos:station:wmo:42046:1,2009-11-04T18:00:00Z,27.8903,-94.0367,1024.65,11111222 
TABS,ioos:station:wmo:42046:1,2009-11-04T18:30:00Z,27.8903,-94.0367,1024.4,11111222 
TABS,ioos:station:wmo:42046:1,2009-11-04T19:00:00Z,27.8903,-94.0367,1024.16,11111222 
TABS,ioos:station:wmo:42046:1,2009-11-04T19:30:00Z,27.8903,-94.0367,1023.82,11111222 
TABS,ioos:station:wmo:42046:1,2009-11-04T20:00:00Z,27.8903,-94.0367,1023.56,11111222 
TABS,ioos:station:wmo:42046:1,2009-11-04T20:30:00Z,27.8903,-94.0367,1023.54,11111222 
TABS,ioos:station:wmo:42046:1,2009-11-04T21:00:00Z,27.8903,-94.0367,1023.5,11111222 
TABS,ioos:station:wmo:42046:1,2009-11-04T21:30:00Z,27.8903,-94.0367,1023.49,11111222 
TABS,ioos:station:wmo:42046:1,2009-11-04T22:00:00Z,27.8903,-94.0367,1023.65,11111222 
TABS,ioos:station:wmo:42046:1,2009-11-04T22:30:00Z,27.8903,-94.0367,1023.89,11111222 
TABS,ioos:station:wmo:42046:1,2009-11-04T23:00:00Z,27.8903,-94.0367,1023.99,11111222 
TABS,ioos:station:wmo:42046:1,2009-11-04T23:30:00Z,27.8903,-94.0367,1024.04,11111222 
TABS,ioos:station:wmo:42046:1,2009-11-05T00:00:00Z,27.8903,-94.0367,1024.46,11111222 
TABS,ioos:station:wmo:42046:1,2009-11-05T00:30:00Z,27.8903,-94.0367,1024.59,11111222 
TABS,ioos:station:wmo:42046:1,2009-11-05T01:00:00Z,27.8903,-94.0367,1024.81,11111222 
TABS,ioos:station:wmo:42046:1,2009-11-05T01:30:00Z,27.8903,-94.0367,1025.22,11111222 
TABS,ioos:station:wmo:42046:1,2009-11-05T02:00:00Z,27.8903,-94.0367,1025.58,11111222 
TABS,ioos:station:wmo:42046:1,2009-11-05T02:30:00Z,27.8903,-94.0367,1025.71,11111222 
TABS,ioos:station:wmo:42046:1,2009-11-05T03:00:00Z,27.8903,-94.0367,1026.03,11111222 
TABS,ioos:station:wmo:42046:1,2009-11-05T03:30:00Z,27.8903,-94.0367,1026.17,11111222 
TABS,ioos:station:wmo:42046:1,2009-11-05T04:00:00Z,27.8903,-94.0367,1026.18,11111222 
TABS,ioos:station:wmo:42046:1,2009-11-05T04:30:00Z,27.8903,-94.0367,1026.15,11111222 
TABS,ioos:station:wmo:42046:1,2009-11-05T05:00:00Z,27.8903,-94.0367,1026.14,11111222 
TABS,ioos:station:wmo:42046:1,2009-11-05T05:30:00Z,27.8903,-94.0367,1026.06,11111222 
TABS,ioos:station:wmo:42046:1,2009-11-05T06:00:00Z,27.8903,-94.0367,1026.2,11111222 
TABS,ioos:station:wmo:42046:1,2009-11-05T06:30:00Z,27.8903,-94.0367,1026.08,11111222 
TABS,ioos:station:wmo:42046:1,2009-11-05T07:00:00Z,27.8903,-94.0367,1025.84,11111222 
TABS,ioos:station:wmo:42046:1,2009-11-05T07:30:00Z,27.8903,-94.0367,1025.75,11111222 
TABS,ioos:station:wmo:42046:1,2009-11-05T08:00:00Z,27.8903,-94.0367,1025.61,11111222 
TABS,ioos:station:wmo:42046:1,2009-11-05T08:30:00Z,27.8903,-94.0367,1025.62,11111222 
TABS,ioos:station:wmo:42046:1,2009-11-05T09:00:00Z,27.8903,-94.0367,1025.73,11111222 
TABS,ioos:station:wmo:42046:1,2009-11-05T09:30:00Z,27.8903,-94.0367,1025.7,11111222 
TABS,ioos:station:wmo:42046:1,2009-11-05T10:00:00Z,27.8903,-94.0367,1025.68,11111222 
TABS,ioos:station:wmo:42046:1,2009-11-05T10:30:00Z,27.8903,-94.0367,1025.59,11111222 
TABS,ioos:station:wmo:42046:1,2009-11-05T11:00:00Z,27.8903,-94.0367,1025.67,11111222 
TABS,ioos:station:wmo:42046:1,2009-11-05T11:30:00Z,27.8903,-94.0367,1025.57,11111222 
TABS,ioos:station:wmo:42046:1,2009-11-05T12:00:00Z,27.8903,-94.0367,1025.98,11111222 
TABS,ioos:station:wmo:42046:1,2009-11-05T12:30:00Z,27.8903,-94.0367,1026.05,11111222 
TABS,ioos:station:wmo:42046:1,2009-11-05T13:00:00Z,27.8903,-94.0367,1026.48,11111222 
TABS,ioos:station:wmo:42046:1,2009-11-05T13:30:00Z,27.8903,-94.0367,1026.37,11111222 
TABS,ioos:station:wmo:42046:1,2009-11-05T14:00:00Z,27.8903,-94.0367,1026.59,11111222 
TABS,ioos:station:wmo:42046:1,2009-11-05T14:30:00Z,27.8903,-94.0367,1026.97,11111222 
TABS,ioos:station:wmo:42046:1,2009-11-05T15:00:00Z,27.8903,-94.0367,1027.13,11111222 
TABS,ioos:station:wmo:42046:1,2009-11-05T15:30:00Z,27.8903,-94.0367,1027.1,11111222 
TABS,ioos:station:wmo:42046:1,2009-11-05T16:00:00Z,27.8903,-94.0367,1027.26,11111222 
TABS,ioos:station:wmo:42046:1,2009-11-05T16:30:00Z,27.8903,-94.0367,1027.09,11111222 
TABS,ioos:station:wmo:42046:1,2009-11-05T17:00:00Z,27.8903,-94.0367,1026.98,11111222 
TABS,ioos:station:wmo:42046:1,2009-11-05T17:30:00Z,27.8903,-94.0367,1026.47,11111222 
TABS,ioos:station:wmo:42046:1,2009-11-05T18:00:00Z,27.8903,-94.0367,1025.97,11111222 
TABS,ioos:station:wmo:42046:1,2009-11-05T18:30:00Z,27.8903,-94.0367,1025.73,11111222 
TABS,ioos:station:wmo:42046:1,2009-11-05T19:00:00Z,27.8903,-94.0367,1025.45,11111222 
TABS,ioos:station:wmo:42046:1,2009-11-05T19:30:00Z,27.8903,-94.0367,1025.07,11111222 
TABS,ioos:station:wmo:42046:1,2009-11-05T20:00:00Z,27.8903,-94.0367,1025.11,11111222 
TABS,ioos:station:wmo:42046:1,2009-11-05T20:30:00Z,27.8903,-94.0367,1024.91,11111222 
TABS,ioos:station:wmo:42046:1,2009-11-05T21:00:00Z,27.8903,-94.0367,1024.87,11111222 
TABS,ioos:station:wmo:42046:1,2009-11-05T21:30:00Z,27.8903,-94.0367,1024.52,11111222 
TABS,ioos:station:wmo:42046:1,2009-11-05T22:00:00Z,27.8903,-94.0367,1024.43,11111222 
TABS,ioos:station:wmo:42046:1,2009-11-05T22:30:00Z,27.8903,-94.0367,1024.32,11111222 
TABS,ioos:station:wmo:42046:1,2009-11-05T23:00:00Z,27.8903,-94.0367,1024.42,11111222 
TABS,ioos:station:wmo:42046:1,2009-11-05T23:30:00Z,27.8903,-94.0367,1024.36,11111222 
TABS,ioos:station:wmo:42046:1,2009-11-06T00:00:00Z,27.8903,-94.0367,1024.52,11111222 
TABS,ioos:station:wmo:42046:1,2009-11-06T00:30:00Z,27.8903,-94.0367,1024.68,11111222 
TABS,ioos:station:wmo:42046:1,2009-11-06T01:00:00Z,27.8903,-94.0367,1024.7,11111222 
TABS,ioos:station:wmo:42046:1,2009-11-06T01:30:00Z,27.8903,-94.0367,1025.15,11111222 
TABS,ioos:station:wmo:42046:1,2009-11-06T02:00:00Z,27.8903,-94.0367,1025.19,11111222 
TABS,ioos:station:wmo:42046:1,2009-11-06T02:30:00Z,27.8903,-94.0367,1025.13,11111222 
TABS,ioos:station:wmo:42046:1,2009-11-06T03:00:00Z,27.8903,-94.0367,1025.04,11111222 
TABS,ioos:station:wmo:42046:1,2009-11-06T03:30:00Z,27.8903,-94.0367,1025.13,11111222 
TABS,ioos:station:wmo:42046:1,2009-11-06T04:00:00Z,27.8903,-94.0367,1024.94,11111222 
TABS,ioos:station:wmo:42046:1,2009-11-06T04:30:00Z,27.8903,-94.0367,1024.87,11111222 
TABS,ioos:station:wmo:42046:1,2009-11-06T05:00:00Z,27.8903,-94.0367,1024.95,11111222 
TABS,ioos:station:wmo:42046:1,2009-11-06T05:30:00Z,27.8903,-94.0367,1024.92,11111222 
TABS,ioos:station:wmo:42046:1,2009-11-06T06:00:00Z,27.8903,-94.0367,1024.64,11111222 
TABS,ioos:station:wmo:42046:1,2009-11-06T06:30:00Z,27.8903,-94.0367,1024.35,11111222 
TABS,ioos:station:wmo:42046:1,2009-11-06T07:00:00Z,27.8903,-94.0367,1024.07,11111222 
TABS,ioos:station:wmo:42046:1,2009-11-06T07:30:00Z,27.8903,-94.0367,1023.92,11111222 
TABS,ioos:station:wmo:42046:1,2009-11-06T08:00:00Z,27.8903,-94.0367,1023.39,11111222 
TABS,ioos:station:wmo:42046:1,2009-11-06T08:30:00Z,27.8903,-94.0367,1023.29,11111222 
TABS,ioos:station:wmo:42046:1,2009-11-06T09:00:00Z,27.8903,-94.0367,1023.31,11111222 
TABS,ioos:station:wmo:42046:1,2009-11-06T09:30:00Z,27.8903,-94.0367,1022.89,11111222 
TABS,ioos:station:wmo:42046:1,2009-11-06T10:00:00Z,27.8903,-94.0367,1022.79,11111222 
TABS,ioos:station:wmo:42046:1,2009-11-06T10:30:00Z,27.8903,-94.0367,1022.98,11111222 
TABS,ioos:station:wmo:42046:1,2009-11-06T11:00:00Z,27.8903,-94.0367,1022.78,11111222 
TABS,ioos:station:wmo:42046:1,2009-11-06T11:30:00Z,27.8903,-94.0367,1022.91,11111222 
TABS,ioos:station:wmo:42046:1,2009-11-06T12:00:00Z,27.8903,-94.0367,1022.94,11111222 
TABS,ioos:station:wmo:42046:1,2009-11-06T12:30:00Z,27.8903,-94.0367,1022.97,11111222 
TABS,ioos:station:wmo:42046:1,2009-11-06T13:00:00Z,27.8903,-94.0367,1023.11,11111222 
TABS,ioos:station:wmo:42046:1,2009-11-06T13:30:00Z,27.8903,-94.0367,1023.28,11111222 
TABS,ioos:station:wmo:42046:1,2009-11-06T14:00:00Z,27.8903,-94.0367,1023.78,11111222 
TABS,ioos:station:wmo:42046:1,2009-11-06T14:30:00Z,27.8903,-94.0367,1024.24,11111222 
TABS,ioos:station:wmo:42046:1,2009-11-06T15:00:00Z,27.8903,-94.0367,1024.38,11111222 
TABS,ioos:station:wmo:42046:1,2009-11-06T15:30:00Z,27.8903,-94.0367,1024.25,11111222 
TABS,ioos:station:wmo:42046:1,2009-11-06T16:00:00Z,27.8903,-94.0367,1024.29,11111222 
TABS,ioos:station:wmo:42046:1,2009-11-06T16:30:00Z,27.8903,-94.0367,1024.16,11111222 
TABS,ioos:station:wmo:42046:1,2009-11-06T17:00:00Z,27.8903,-94.0367,1024.08,11111222 
TABS,ioos:station:wmo:42046:1,2009-11-06T17:30:00Z,27.8903,-94.0367,1023.61,11111222 
TABS,ioos:station:wmo:42046:1,2009-11-06T18:00:00Z,27.8903,-94.0367,1023.25,11111222 
TABS,ioos:station:wmo:42046:1,2009-11-06T18:30:00Z,27.8903,-94.0367,1022.77,11111222 